CZ-3B DEB, 40848

Orbit data source: Space-Track

CZ-3B DEB, 40848 is space debris in HEO originally from a launch on Mon, 19 Dec 2011 UTC launched from the Xichang Space Center, China (XSC). Debris objects in space refer to the collection of defunct objects orbiting the Earth. Examples of debris include non-operational satellites, rocket bodies, and fragments generated from explosions, collisions, or faulty payload assembly.

Loading next visibility...
Identifier
40848, 2011-077AD
Orbit
HEO
Country
Flag of CNCN / PRC
Related business
Manufacturer
CALT
Mission
Spacecraft
Bus & Motor
Unknown
Mass
Unknown
Launch date (UTC)
2011-12-19 (14 years ago)
Launch vehicle
Unknown
Launch site
Xichang Space Center, China (XSC)
Object type
Payload
Rocket body
Debris
Shape & HBR
Unknown
Radar Cross Section
Medium (>0.1 m² and <1 m²)

Expand to show TLE details & history
Last TLE update: 2 months ago

TLE from 2 months ago
0 CZ-3B DEB
1 40848U 11077AD  25192.70050273 -.00000163  00000-0 -83101-2 0  9990
2 40848  26.3815  92.2065 7349027 226.4583  42.6615  1.90946338 72586
Epoch: 2025-07-11T16:48Z
TLE epoch observation values (Epoch: 2025-07-11T16:48:43.435Z)
Latitude
0.00026°
Longitude
-89.72328°
Altitude
19,244.33 km
Speed
4.073 km/s
True Right ascension
06h 09m 13s
True Declination
0° 00' 01"
Sunlit
Object was in daylight at epoch
Visualization orbit readout
Latitude
Unknown
Longitude
Unknown
Altitude
Unknown
Speed
Unknown
Apparent Right ascension
Unknown
Apparent Declination
Unknown
Sunlit
N/A
Visualization observer readout
Local Sidereal Time
23:10:39
Azimuth
Unknown
Elevation
Unknown
Doppler factor
Unknown
Orbital elements
Apogee altitude
41,242.33 km
Perigee altitude
898.385 km
Semi-major axis
27,448.494 km
Eccentricity
0.7349
Inclination
26.3815°
RAAN
92.2065°
Arg. of periapsis
226.4583°
True anomaly
133.48944°
Mean anomaly
42.6615°
Eccentric anomaly
84.58007°
Mean motion
0.47727 °/min
Orbital period
754.29 mins
BSTAR
-0.0083101
Loading maneuver chart data...
Computing Atmospheric mass density...
Loading historical data...
Loading historical data...
Loading historical data...
Loading historical data...
Loading historical data...
Loading historical data...
Loading historical data...

Documentation

Showing up to 5 results
|